Effective Sunday, March 17, 2024, the National Weather Service National Data Buoy Center will discontinue its Dial-A-Buoy Interactive Voice Response system. For more information, see Service Change Notice 24-06 (PDF).

Station FSNM2 - 8574729 - Francis Scott Key Bridge NE Tower, MD Image indicating link to RSS feed of recent meteorological observations for station FSNM2


Conditions at FSNM2 as of
(2:54 pm EST)
1954 GMT on 02/27/2024:
     

Click on the graph icon in the table below to see a time series plot of the last five days of that observation.

5-day plot - Wind Direction Wind Direction (WDIR): S ( 190 deg true )
5-day plot - Wind Speed Wind Speed (WSPD): 11.1 kts
5-day plot - Wind Gust Wind Gust (GST): 17.1 kts
5-day plot - Atmospheric Pressure Atmospheric Pressure (PRES):29.82 in
5-day plot -  Wind Speed, Wind Gust and Atmospheric Pressure Combined plot of Wind Speed, Gust, and Air Pressure
NOS Water Level Observation Network Water Level
Previous observations
TIME
(EST)
5-day plot - Wind Direction
WDIR
 
5-day plot - Wind Speed
WSPD
kts
5-day plot - Wind Gust
GST
kts
5-day plot - Wave Height
WVHT
ft
5-day plot - Dominant Wave Period
DPD
sec
5-day plot - Average Wave Period
APD
sec
5-day plot - Mean Wave Direction
MWD
 
5-day plot - Atmospheric Pressure
PRES
in
5-day plot - Pressure Tendency
PTDY
in
5-day plot - Air Temperature
ATMP
°F
5-day plot - Water Temperature
WTMP
°F
5-day plot - Dew Point
DEWP
°F
5-day plot - Salinity
SAL
psu
5-day plot - Visibility
VIS
nmi
5-day plot - Tide (above MLLW)
TIDE
ft
2024-02-27 02:48 pm S 11.1 17.1----29.82-------
2024-02-27 02:42 pm S 13.0 17.1----29.81-------
2024-02-27 02:36 pm S 14.0 17.1----29.82-------
2024-02-27 02:30 pm S 15.0 21.0----29.81-------
2024-02-27 02:24 pm S 15.0 18.1----29.80-------
2024-02-27 02:18 pm S 15.0 18.1----29.81-------
2024-02-27 02:12 pm S 14.0 18.1----29.82-------
2024-02-27 02:06 pm S 12.0 15.9----29.82-------
2024-02-27 02:00 pm S 13.0 15.9----29.83-0.09------
2024-02-27 01:54 pm S 12.0 15.0----29.83-------
2024-02-27 01:42 pm S 13.0 15.0----29.84-------
2024-02-27 01:36 pm S 13.0 15.9----29.85-------
2024-02-27 01:30 pm S 14.0 15.9----29.85-------
2024-02-27 01:24 pm S 13.0 15.9----29.85-------
2024-02-27 01:18 pm S 13.0 15.9----29.86-------
2024-02-27 01:12 pm S 13.0 15.0------------
2024-02-27 01:06 pm S 12.0 14.0----29.87-------
2024-02-27 01:00 pm S 11.1 13.0----29.87-0.05------
2024-02-27 12:54 pm S 11.1 13.0----29.88-------
2024-02-27 12:48 pm S 9.9 12.0----29.88-------
2024-02-27 12:42 pm S 11.1 13.0----29.89-------
2024-02-27 12:36 pmSSE 11.1 12.0----29.89-------
2024-02-27 12:30 pmSSE 9.9 12.0----29.89-------
2024-02-27 12:24 pmSSE 9.9 11.1----29.89-------
2024-02-27 12:18 pmSSE 9.9 12.0----29.90-------
2024-02-27 12:12 pmSSE 9.9 11.1----29.90-------
2024-02-27 12:06 pmSSE 8.9 11.1----29.91-------
2024-02-27 12:00 pmSSE 8.9 11.1----29.91-0.04------
2024-02-27 11:54 amSSE 9.9 11.1----29.91-------
2024-02-27 11:48 amSSE 9.9 13.0----29.91-------
2024-02-27 11:42 amSSE 11.1 12.0----29.91-------
2024-02-27 11:36 amSSE 11.1 13.0----29.92-------
2024-02-27 11:30 am SE 11.1 12.0----29.92-------
2024-02-27 11:24 am SE 9.9 12.0----29.92-------
2024-02-27 11:18 am SE 8.0 9.9----29.92-------
2024-02-27 11:12 am SE 8.0 9.9----29.92-------
2024-02-27 11:06 amSSE 8.0 9.9----29.92-------
2024-02-27 11:00 am S 8.0 9.9----29.92-0.04------
2024-02-27 10:54 am S 7.0 9.9----29.92-------
2024-02-27 10:36 am S 8.0 11.1----29.92-------
2024-02-27 10:30 amSSE 8.9 12.0----29.91-------
2024-02-27 10:24 amSSE 8.0 11.1----29.92-------
2024-02-27 10:18 amSSE 8.0 9.9----29.91-------
2024-02-27 10:12 amSSE 8.0 9.9------------
2024-02-27 10:06 amSSE 7.0 8.9----29.92-------
2024-02-27 10:00 am SE 7.0 9.9----29.92-0.04------
2024-02-27 09:54 am SE 8.9 9.9----29.93-------
2024-02-27 09:48 am SE 8.0 9.9----29.93-------
2024-02-27 09:36 amESE 8.9 8.9----29.93-------
2024-02-27 09:30 amESE 8.0 8.9----29.93-------
2024-02-27 09:24 amESE 8.0 8.0----29.93-------
2024-02-27 09:18 amESE 7.0 7.0----29.94-------
2024-02-27 09:12 am SE 5.1 6.0----29.94-------
2024-02-27 09:06 am SE 6.0 7.0----29.94-------
2024-02-27 09:00 am SE 6.0 7.0----29.95-0.02------
2024-02-27 08:54 am SE 6.0 6.0----29.95-------
2024-02-27 08:48 am SE 5.1 5.1----29.95-------
2024-02-27 08:42 am SE 5.1 6.0----29.96-------
2024-02-27 08:36 am SE 6.0 6.0----29.96-------
2024-02-27 08:30 am SE 6.0 6.0----29.96-------
2024-02-27 08:24 am SE 6.0 7.0----29.96-------
2024-02-27 08:18 am SE 7.0 7.0----29.96-------
2024-02-27 08:12 amSSE 6.0 8.0----29.96-------
2024-02-27 08:06 am SE 7.0 8.0----29.96-------
2024-02-27 08:00 amSSE 7.0 8.0----29.96+0.00------
2024-02-27 07:54 amSSE 6.0 7.0----29.96-------
2024-02-27 07:48 amSSE 6.0 8.0----29.96-------
2024-02-27 07:42 am SE 8.0 8.0----29.96-------
2024-02-27 07:36 amSSE 7.0 8.0----29.96-------
2024-02-27 07:30 am SE 7.0 8.0----29.96-------
2024-02-27 07:24 amSSE 6.0 8.0----29.96-------
2024-02-27 07:18 amSSE 7.0 8.0----29.96-------
2024-02-27 07:12 amSSE 7.0 8.0----29.96-------
2024-02-27 07:06 amSSE 7.0 8.0----29.96-------
2024-02-27 07:00 am SE 7.0 8.0----29.96+0.01------
2024-02-27 06:54 am SE 5.1 6.0----29.96-------
2024-02-27 06:48 amESE 6.0 6.0----29.96-------
2024-02-27 06:42 amESE 5.1 5.1----29.95-------
2024-02-27 06:36 amESE 4.1 5.1----29.96-------
2024-02-27 06:30 am SE 4.1 4.1----29.96-------
2024-02-27 06:24 am SE 2.9 4.1----29.96-------
2024-02-27 06:18 amSSE 1.9 2.9----29.96-------
2024-02-27 06:12 amSSE 1.9 2.9----29.96-------
2024-02-27 06:06 amSSE 1.9 2.9----29.96-------
2024-02-27 06:00 am S 2.9 5.1----29.96+0.01------
2024-02-27 05:54 amSSE 2.9 4.1----29.96-------
2024-02-27 05:48 amSSE 2.9 4.1----29.96-------
2024-02-27 05:42 amSSE 1.9 2.9----29.96-------
2024-02-27 05:36 am S 2.9 4.1----29.96-------
2024-02-27 05:30 amSSE 2.9 4.1----29.96-------
2024-02-27 05:24 am SE 2.9 4.1----29.96-------
2024-02-27 05:18 amSSE 1.9 2.9----29.96-------
2024-02-27 05:12 amSSE 1.0 2.9----29.96-------
2024-02-27 05:06 amSSE 1.9 4.1----29.96-------
2024-02-27 05:00 amSSE 2.9 4.1----29.96+0.00------
2024-02-27 04:54 am SE 2.9 5.1----29.95-------
2024-02-27 04:48 amESE 5.1 5.1----29.95-------
2024-02-27 04:42 am SE 4.1 4.1----29.95-------
2024-02-27 04:36 amSSE 4.1 5.1----29.95-------
2024-02-27 04:30 am SE 5.1 5.1----29.95-------
2024-02-27 04:24 amSSE 4.1 5.1----29.95-------
2024-02-27 04:18 am SE 5.1 5.1----29.95-------
2024-02-27 04:12 am SE 5.1 6.0----29.95-------
2024-02-27 04:06 am SE 5.1 6.0----29.95-------
2024-02-27 04:00 am SE 6.0 7.0----29.95-0.02------
2024-02-27 03:54 am SE 6.0 6.0----29.95-------
2024-02-27 03:48 am SE 5.1 6.0----29.95-------
2024-02-27 03:42 am SE 5.1 6.0----29.95-------
2024-02-27 03:36 am SE 5.1 6.0----29.95-------
2024-02-27 03:30 am SE 5.1 6.0----29.95-------
2024-02-27 03:24 am SE 5.1 5.1----29.95-------
2024-02-27 03:18 am SE 4.1 5.1----29.95-------
2024-02-27 03:12 amESE 5.1 5.1------------
2024-02-27 03:06 amESE 5.1 6.0----29.95-------
2024-02-27 03:00 am SE 5.1 6.0----29.95-0.03------
2024-02-27 02:54 am SE 2.9 4.1----29.95-------
2024-02-27 02:48 amSSE 2.9 4.1----29.95-------
2024-02-27 02:42 amSSE 4.1 5.1----29.95-------
2024-02-27 02:36 amSSE 4.1 5.1----29.96-------
2024-02-27 02:30 amSSE 5.1 6.0----29.96-------
2024-02-27 02:24 am SE 6.0 7.0----29.96-------
2024-02-27 02:18 am SE 7.0 7.0----29.96-------
2024-02-27 02:12 am SE 7.0 8.0----29.96-------
2024-02-27 02:06 amESE 8.0 8.0----29.96-------
2024-02-27 02:00 amESE 8.0 8.0----29.96-0.04------
2024-02-27 01:54 amESE 7.0 7.0----29.96-------
2024-02-27 01:48 amESE 7.0 7.0----29.96-------
2024-02-27 01:42 amESE 7.0 7.0----29.96-------
2024-02-27 01:36 amESE 6.0 6.0----29.96-------
2024-02-27 01:30 amESE 5.1 6.0----29.97-------
2024-02-27 01:24 amESE 4.1 5.1----29.97-------
2024-02-27 01:18 amESE 4.1 6.0----29.97-------
2024-02-27 01:12 amESE 5.1 5.1----29.97-------
2024-02-27 01:06 amESE 5.1 5.1----29.97-------
2024-02-27 01:00 am E 4.1 5.1----29.97-0.03------
2024-02-27 12:54 amESE 4.1 4.1----29.97-------
2024-02-27 12:48 amESE 4.1 5.1----29.97-------
2024-02-27 12:42 amESE 4.1 5.1----29.97-------
2024-02-27 12:36 amESE 5.1 7.0----29.98-------
2024-02-27 12:30 amESE 7.0 7.0----29.98-------
2024-02-27 12:24 amESE 7.0 8.0----29.98-------
2024-02-27 12:18 amESE 7.0 7.0----29.98-------
2024-02-27 12:12 amESE 7.0 8.0----29.98-------
2024-02-27 12:06 amESE 7.0 8.0----29.98-------
2024-02-27 12:00 amESE 7.0 8.0----29.98-0.01------
2024-02-26 11:54 pmESE 7.0 8.0----29.98-------
2024-02-26 11:48 pmESE 8.0 8.9----29.98-------
2024-02-26 11:30 pmESE 8.0 8.0----29.99-------
2024-02-26 11:24 pmESE 7.0 7.0----29.99-------
2024-02-26 11:18 pmESE 7.0 8.0----29.99-------
2024-02-26 11:12 pmESE 8.0 8.0----29.99-------
2024-02-26 11:06 pmESE 8.0 8.0----29.99-------
2024-02-26 11:00 pmESE 8.0 8.0----30.00+0.00------
2024-02-26 10:54 pmESE 7.0 8.0----30.00-------
2024-02-26 10:48 pmESE 7.0 7.0----30.00-------
2024-02-26 10:42 pmESE 6.0 7.0----30.00-------
2024-02-26 10:36 pmESE 7.0 8.0----30.00-------
2024-02-26 10:30 pmESE 7.0 8.0----30.00-------
2024-02-26 10:24 pmESE 7.0 7.0----30.00-------
2024-02-26 10:18 pmESE 7.0 7.0----30.00-------
2024-02-26 10:12 pmESE 6.0 7.0----30.00-------
2024-02-26 10:06 pmESE 6.0 6.0----30.00-------
2024-02-26 10:00 pmESE 6.0 7.0----30.00+0.01------
2024-02-26 09:54 pmESE 7.0 8.0----30.00-------
2024-02-26 09:48 pmESE 7.0 8.0----30.00-------
2024-02-26 09:42 pmESE 8.0 8.0----30.00-------
2024-02-26 09:36 pmESE 8.0 8.0----30.00-------
2024-02-26 09:30 pmESE 7.0 8.0----30.00-------
2024-02-26 09:24 pmESE 6.0 7.0----30.00-------
2024-02-26 09:18 pmESE 7.0 8.9----30.00-------
2024-02-26 09:12 pmESE 8.9 8.9----30.00-------
2024-02-26 09:06 pmESE 8.9 9.9----30.00-------
2024-02-26 09:00 pmESE 9.9 9.9----30.00+0.01------
2024-02-26 08:54 pmESE 9.9 9.9----30.00-------
2024-02-26 08:48 pmESE 8.9 9.9----30.00-------
2024-02-26 08:42 pmESE 8.0 8.9----30.00-------
2024-02-26 08:36 pmESE 6.0 7.0----30.00-------
2024-02-26 08:30 pm SE 7.0 7.0----30.00-------
2024-02-26 08:24 pm SE 6.0 8.0----30.00-------
2024-02-26 08:18 pm SE 7.0 8.0----30.00-------
2024-02-26 08:12 pm SE 7.0 8.0----30.00-------
2024-02-26 08:06 pm SE 6.0 7.0----29.99-------
2024-02-26 08:00 pm SE 5.1 6.0----29.99+0.02------
2024-02-26 07:54 pmSSE 5.1 7.0----29.99-------
2024-02-26 07:48 pmSSE 6.0 8.0----29.99-------
2024-02-26 07:42 pmSSE 4.1 7.0----29.99-------
2024-02-26 07:36 pmSSE 4.1 6.0----29.99-------
2024-02-26 07:30 pmSSE 6.0 8.0----29.99-------
2024-02-26 07:24 pmSSE 7.0 8.0----29.99-------
2024-02-26 07:18 pmSSE 7.0 8.9----29.99-------
2024-02-26 07:12 pmSSE 7.0 8.9----29.99-------
2024-02-26 07:06 pmSSE 7.0 8.0----29.99-------
2024-02-26 07:00 pm S 6.0 8.0----29.99+0.01------
2024-02-26 06:54 pm S 7.0 9.9----29.99-------
2024-02-26 06:48 pm S 6.0 8.9----29.99-------
2024-02-26 06:42 pm S 6.0 8.9----29.99-------
2024-02-26 06:36 pm S 6.0 8.0----29.99-------
2024-02-26 06:30 pm S 6.0 8.9----29.99-------
2024-02-26 06:24 pm S 6.0 8.0----29.98-------
2024-02-26 06:18 pm S 6.0 8.0----29.98-------
2024-02-26 05:54 pm S 7.0 8.9----29.98-------
2024-02-26 05:48 pm S 8.0 9.9----29.98-------
2024-02-26 05:42 pmSSE 7.0 8.9----29.98-------
2024-02-26 05:36 pm S 7.0 8.9----29.98-------
2024-02-26 05:30 pmSSE 7.0 8.9----29.98-------
2024-02-26 05:24 pmSSE 8.0 8.9----29.98-------
2024-02-26 05:18 pmSSE 8.9 12.0----29.98-------
2024-02-26 05:12 pm SE 12.0 13.0------------
2024-02-26 05:06 pm SE 11.1 12.0----29.98-------
2024-02-26 05:00 pmESE 11.1 13.0----29.97+0.00------
2024-02-26 04:54 pmESE 12.0 12.0----29.97-------
2024-02-26 04:48 pmESE 12.0 12.0----29.97-------
2024-02-26 04:42 pmESE 12.0 12.0----29.97-------
2024-02-26 04:36 pmESE 12.0 13.0----29.97-------
2024-02-26 04:30 pmESE 12.0 13.0----29.97-------
2024-02-26 04:24 pmESE 12.0 13.0----29.97-------
2024-02-26 04:18 pmESE 11.1 12.0----29.97-------
2024-02-26 04:12 pmESE 11.1 12.0----29.97-------
2024-02-26 04:06 pmESE 11.1 12.0----29.98-------
2024-02-26 04:00 pmESE 11.1 12.0----29.98-0.02------
2024-02-26 03:54 pm E 12.0 13.0----29.97-------
2024-02-26 03:48 pmESE 12.0 12.0----29.97-------
2024-02-26 03:42 pmESE 12.0 12.0----29.97-------
2024-02-26 03:36 pm E 11.1 12.0----29.97-------
2024-02-26 03:30 pm E 11.1 12.0----29.97-------
2024-02-26 03:24 pm E 11.1 12.0----29.97-------
2024-02-26 03:18 pm E 11.1 12.0----29.97-------
2024-02-26 03:06 pm E 9.9 11.1----29.97-------
2024-02-26 03:00 pm E 9.9 12.0----29.98-0.05------
2024-02-26 02:54 pm E 9.9 11.1----29.97-------